sat.trackr.live / text

‹ back to catalog

STARLINK-32462

NORAD 62129 · 2024-222R

PAYLOAD ACTIVE UNKNOWN

§ Identity

Operator
Country
US
Launch date
2024-11-27
Launch site
AFETR
Launch vehicle
Mass (kg)
RCS (m²)

Purposes: comms

External: N2YO · Heavens-Above · Gunter

§ Orbital elements

Epoch: 2026-05-25T00:52:14.829600Z

Period
94.27 min
Inclination
43.0025°
Eccentricity
0.0002278
Mean motion
15.27599315 rev/d
Perigee alt
481.4 km
Apogee alt
484.6 km
Semi-major
6,861.1 km
B*
6.6526e-4
RAAN
61.6886°
Arg perigee
256.9887°
Mean anomaly
103.0711°
Rev number
8,446

§ Raw data

STARLINK-324621 62129U 24222R   26145.03628275  .00018100  00000+0  66526-3 0  99902 62129  43.0025  61.6886 0002278 256.9887 103.0711 15.27599315 84467

JSON: /api/v1/satellites/62129 · /tle

For live sub-satellite position, see the globe view (requires WebGL).

§ Visibility from observer

Set your observer location to see the next 7 days of passes ≥ 10°. The values pass through the URL so the page stays shareable.

No JS? Fill the form by hand. The geolocation button needs JavaScript.